Location: Znojmo
(48.8500°N, 16.0500°E)
Time: 04:18:17
(UTC+02:00)

ISS - Pass Details

Date: 26 March 2019
Orbit: 408 x 410 km, 51.6° (Epoch: 20 April)

Event Time Altitude Azimuth Distance (km) Brightness Sun altitude
Rises 19:23:07 0° 251° (WSW) 2,332 1.0 -11.5°
Reaches altitude 10° 19:25:12 10° 252° (WSW) 1,472 -0.1 -11.8°
Maximum altitude 19:28:30 83° 339° (NNW) 417 -3.8 -12.3°
Enters shadow 19:31:00 16° 69° (ENE) 1,145 -2.0 -12.7°
